Regional Weather Roundup
Issued by NWS

Home | Current Version | Previous Version | Text Only | Print | Product List | Glossary Off
Versions: 1 2 3 4 5 6 7 8 9 10 11 12 13 14 15 16 17 18 19 20 21 22 23 24 25 26 27 28 29 30 31 32 33 34 35 36 37 38 39 40 41 42 43 44 45 46 47 48 49 50

000
ASUS43 KMKX 292311
RWRWI

WISCONSIN REGIONAL WEATHER ROUNDUP
NATIONAL WEATHER SERVICE MILWAUKEE/SULLIVAN WI
600 PM CDT FRI JUL 29 2016

NOTE: "FAIR" INDICATES FEW OR NO CLOUDS BELOW 12,000 FEET WITH NO
SIGNIFICANT WEATHER AND/OR OBSTRUCTIONS TO VISIBILITY.

WIZ001-002-006>008-014>016-023>028-300000-
NORTHWEST WISCONSIN

CITY           SKY/WX    TMP DP  RH WIND       PRES   REMARKS
SUPERIOR ARPT  SUNNY     71  56  59 E10       30.06F
ASHLAND        SUNNY     72  57  59 NE12      30.07F
HAYWARD        MOSUNNY   75  56  51 N8        30.05F
SIREN          SUNNY     77  52  41 NE7       30.04F
CUMBERLAND     SUNNY     73  52  46 CALM      30.05S
RICE LAKE      SUNNY     76  51  42 NE3       30.04F
CHETEK         SUNNY     76  55  46 MISG      30.03F
LADYSMITH      MOSUNNY   77  56  48 NE5       30.05S
EAU CLAIRE     PTSUNNY   79  59  50 N6        30.01R HX  80
MENOMONIE      SUNNY     81  49  32 N6        30.02F HX  80
NEW RICHMOND   SUNNY     75  49  39 NE8       30.04S
OSCEOLA        SUNNY     76  56  50 NE7       30.06S
$$

WIZ003>005-009-010-017-018-300000-
NORTH CENTRAL WISCONSIN

CITY           SKY/WX    TMP DP  RH WIND       PRES   REMARKS
MANITOWISH WTR SUNNY     75  51  43 CALM      30.05F
ARBOR VITAE    SUNNY     77  55  45 CALM      30.05F
WOODRUFF       SUNNY     77  55  45 CALM      30.05F
RHINELANDER    PTSUNNY   77  53  43 SE7       30.05S
EAGLE RIVER    MOSUNNY   75  51  42 CALM      30.05S
LAND O LAKES   SUNNY     75  51  43 E3        30.06S
PHILLIPS       SUNNY     76  54  46 NE3       30.04S
TOMAHAWK       PTSUNNY   73  57  57 CALM      30.05S
MEDFORD        MOSUNNY   73  61  66 E5        30.05S
MERRILL        CLOUDY    72  62  70 SE3       30.05S
$$

WIZ029-030-035-036-043>047-300000-
CENTRAL WISCONSIN

CITY           SKY/WX    TMP DP  RH WIND       PRES   REMARKS
WAUSAU         CLOUDY    72  61  68 E6        30.03R
MOSINEE        CLOUDY    72  63  73 E3        30.05R
MARSHFIELD     CLOUDY    73  60  63 E8        30.03R
STEVENS POINT  CLOUDY    70  62  75 SE3       30.03S
WAUPACA        CLOUDY    75  63  67 E7        30.02S
WAUTOMA        CLOUDY    71  66  84 NE3       30.02R
WISC RAPIDS    CLOUDY    72  61  68 E6        30.04R
CAMP DOUGLAS   PTSUNNY   70  65  85 NE7       30.01S
$$

WIZ011>013-019>022-031-037>040-048>050-300000-
NORTHEAST WISCONSIN

CITY           SKY/WX    TMP DP  RH WIND       PRES   REMARKS
ANTIGO         CLOUDY    70  61  73 CALM      30.06S
SHAWANO        CLOUDY    75  58  55 E9        30.04R
OCONTO         CLOUDY    73  57  58 E7        30.03R
STURGEON BAY   CLOUDY    73  54  51 E8        30.04R
GREEN BAY      CLOUDY    74  62  66 E10       30.02R
MANITOWOC      MOSUNNY   73  60  63 NE13      30.01S
APPLETON       PTSUNNY   73  57  56 NE10      30.00S
CLINTONVILLE   CLOUDY    73  59  60 E9        30.03R
OSHKOSH        CLOUDY    74  60  61 NE10      30.00S
$$

WIZ032>034-041-042-053>061-300000-
SOUTHWEST WISCONSIN

CITY           SKY/WX    TMP DP  RH WIND       PRES   REMARKS
LA CROSSE      CLOUDY    76  64  66 E9        29.99R
SPARTA         CLOUDY    72  64  77 E7        30.02R
VIROQUA        CLOUDY    70  65  82 E7        30.02S
BOSCOBEL       CLOUDY    70  68  93 CALM      29.99S
PRAIRIE DU CHI CLOUDY    70  64  82 NE5       29.99S
PLATTEVILLE    CLOUDY    71  68  92 N9        29.98S
$$

WIZ056-057-062-063-064-067-068-300000-
SOUTH CENTRAL WISCONSIN

CITY           SKY/WX    TMP DP  RH WIND       PRES   REMARKS
REEDSBURG      CLOUDY    69  66  90 NE5       30.00R
BARABOO/DELLS  LGT RAIN  68  65  92 NE5       30.00S
LONE ROCK      PTSUNNY   71  66  84 N7        29.99R
MINERAL POINT  CLOUDY    72  68  88 NE8       29.98S
MADISON        CLOUDY    73  65  75 NE10      29.98R
MIDDLETON      CLOUDY    74  66  77 NE10      29.99S
WATERTOWN      PTSUNNY   71  67  87 NE8       29.98S
MONROE         DRIZZLE   70  68  94 NE6       29.97R
JANESVILLE     LGT RAIN  73  70  88 NE12      29.96R
$$

WIZ051-052-058>065-066-070>072-300000-
SOUTHEAST WISCONSIN

CITY           SKY/WX    TMP DP  RH WIND       PRES   REMARKS
MILWAUKEE      CLOUDY    72  65  78 NE14G23   29.97S
WAUKESHA       PTSUNNY   72  63  73 E13G18    29.99S
MILWAUKEE/TIMM SUNNY     72  59  64 NE10G21   29.99S
RACINE         CLOUDY    71  65  81 N12       29.98S
BURLINGTON     CLOUDY    71  64  76 NE7       29.97S
KENOSHA        CLOUDY    71  66  84 NE10      29.97R
FOND DU LAC    CLOUDY    75  62  64 E13       30.00R
SHEBOYGAN      CLOUDY    71  60  68 NE15      30.00S
WEST BEND      MOSUNNY   70  61  73 NE6       30.00S
JUNEAU         PTSUNNY   72  65  79 E9        30.00F
$$

LSZ147-162-300000-
LAKE SUPERIOR

STATION/POSITION TIME  TEMP    WIND        PRES    WAVE
                       AIR SEA DIR/SP/G            HT/PER
                 (UTC) (F)     (DEG/KT/KT) (MB)    (FT/S)
W MID LAKE BUOY  2250   65 63   70/  6/  6 1018.1F   0
DEVILS ISLAND    2300   66      50/  4/  5 1018.3F
PORT WING        2200   62      30/ 12/ 13 1018.6F
SAXON HARBOR     2100   68      30/  7/ 10 1018.6S
$$

LMZ867-665-643>646-300000-
LAKE MICHIGAN

STATION/POSITION TIME  TEMP    WIND        PRES    WAVE
                       AIR SEA DIR/SP/G            HT/PER
                 (UTC) (F)     (DEG/KT/KT) (MB)    (FT/S)
CHAMBERS ISLAND  2200   73      40/  9/ 13 1016.9S
S GREEN BAY BUOY 2200   71 71   50/ 12/ 14 1016.2R
N MID LAKE BUOY  2250   71 70   50/ 12/ 14 1016.1S   1/ 3
NORTHPORT PIER   2200   71      70/ 10/ 13 1016.6F
SISTER BAY       2221   76     120/ 13/ 17   N/A
ALGOMA LAKESHORE 2213           70/ 15/ 19   N/A
KEWAUNEE LAKESHO 2200   70                 1016.2R
SHEBOYGAN LAKESH 2300   64      10/ 11/ 11 1016.1S
PORT WASHINGTON  2200   71      40/  9/ 11 1016.3
ATWATER BUOY     2300   64 61  360/  8/ 12 1016.6F
MILWAUKEE LAKESH 2210   69      20/ 14/ 16   N/A
S MID LAKE BUOY  2250   73 74   60/ 16/ 17 1013.4R   3/ 5
KENOSHA   LAKESH 2300   69      20/ 14/ 16 1014.6R
$$

TC  - TEMPERATURE IN CELSIUS
VSB - VISIBILITY IN STATUTE MILES
WCI - WIND CHILL INDEX
HX  - HEAT INDEX





USA.gov is the U.S. government's official web portal to all federal, state and local government web resources and services.